Regional Weather Roundup
Issued by NWS Albany, NY

Current Version | Previous Version | Text Only | Print | Product List | Glossary On
Versions: 1 2 3 4 5 6 7 8 9 10 11 12 13 14 15 16 17 18 19 20 21 22 23 24 25 26 27 28 29 30 31 32 33 34 35 36 37 38 39 40 41 42 43 44 45 46 47 48 49 50
882
ASUS41 KALY 201510
RWRALY

NEW YORK STATE HOURLY WEATHER ROUNDUP
NATIONAL WEATHER SERVICE ALBANY NY
1100 AM EDT WED MAR 20 2019

NOTE: "FAIR" INDICATES FEW OR NO CLOUDS BELOW 12,000 FEET WITH NO
SIGNIFICANT WEATHER AND/OR NO OBSTRUCTIONS TO VISIBILITY.

NYZ032-033-038>043-046>054-057>066-NYZ062>081-082-084-201600-
EAST


CITY           SKY/WX    TMP DP  RH WIND       PRES   REMARKS
ALBANY         FAIR      45  18  34 S14       30.35F
GLENS FALLS    FAIR      36  21  54 VRB3      30.34F
POUGHKEEPSIE   FAIR      44  19  36 S7        30.37F
NEWBURGH       SUNNY     43  23  45 CALM      30.37F
MONTGOMERY     FAIR      42  22  44 S8        30.36F
WHITE PLAINS   FAIR      46  26  45 S6        30.38F
ISLIP          PTSUNNY   47  27  45 SW12      30.41S
NEW YORK CITY  PTSUNNY   47  20  34 SW8       30.40F
CENTRAL PARK   FAIR      48  19  31 MISG      30.42F
$$

NYZ005>009-017-018-044>046-055-056-201600-
CENTRAL


CITY           SKY/WX    TMP DP  RH WIND       PRES   REMARKS
FULTON         FAIR      43  24  47 SW7       30.29S
SYRACUSE       FAIR      45  22  40 SW12      30.30S
ROME           FAIR      41  23  48 E3        30.32F
ELMIRA         FAIR      39  24  55 CALM      30.29F
BINGHAMTON     FAIR      41  20  43 SW7       30.27F
MONTICELLO     FAIR      42  18  37 VRB5      30.33F
$$

NYZ026>034-041>043-087-201600-
NORTH


CITY           SKY/WX    TMP DP  RH WIND       PRES   REMARKS
WATERTOWN      FAIR      43  23  45 S14G21    30.28S
FORT DRUM      NOT AVBL
OGDENSBURG     FAIR      41  21  45 SW9G16    30.25R
MASSENA        FAIR      41  24  51 SW14      30.27S
SARANAC LAKE   FAIR      34  20  56 SW15G23   30.22F WCI  24
PLATTSBURGH    LGT RAIN  35  23  61 SE12      30.30F WCI  27
$$

NYZ001>004-010>016-019>021-085-201600-
WEST


CITY           SKY/WX    TMP DP  RH WIND       PRES   REMARKS
NIAGARA FALLS  FAIR      42  26  53 SW14G20   30.24S
BUFFALO        FAIR      44  25  47 SW13      30.24F
JAMESTOWN      FAIR      39  21  48 S15       30.23S WCI  31
WELLSVILLE     FAIR      40  20  44 SW9G18    30.24F WCI  34
ROCHESTER      FAIR      43  23  45 S12       30.27F
PENN YAN       FAIR      43  23  45 S10       30.27F
$$

             KEY
       WCI = WIND CHILL INDEX
       VSB = VISIBILITY
       HX  = HEAT INDEX
$$




USA.gov is the U.S. government's official web portal to all federal, state and local government web resources and services.